KUIPER-00275

导读

KUIPER-00275是亚马逊柯伊伯(Project Kuiper)卫星星座的组成卫星,于2026年2月12日发射,发射任务在法国管辖的库鲁航天中心完成,归属于FR发射节点序列。柯伊伯星座计划部署超3200颗近地卫星,旨在提供全球宽带卫星互联网服务,该卫星发射后,助力亚马逊推进2026年中完成一半星座部署的目标,后续将为全球互联提供支撑。

基本信息
目录编号:
67793
目录名称:
KUIPER-00275
国际标识:
2026-030AF
轨道中心:
EARTH
卫星名称:
KUIPER-00275
卫星全名:
KUIPER-00275
卫星状态:
在轨 (已飞行215 天)
发射日期:
2026-02-12 UTC
国别 :
美国 (US)
星等 :
--
该卫星已列入 空间交会检测服务 Space Conjunction Data Service (SCDS) ,当前飞行风险评估等级: 无高风险
轨道信息
数据来源 国际轨道数据 AOE轨道数据
星历时间 2026-09-15T18:38:00+0800
12小时前
查看轨道信息
2026-09-13T16:00:00+0800
2天前
查看轨道信息
半长轴 7007.698km 7007.697km
偏心率 0.0000871 0.000013
轨道倾角 51.899° 51.897°
近地点辐角 118.565° 38.543°
升交点赤经 64.035° 73.363°
平近点角 241.541° 234.770°
近地点 628.95km 629.468km
远地点 630.172km 629.652km
周期 97.302分钟 97.302分钟
每日圈数 14.799251 14.799253
详细信息
使用方式:
暂无
2D轨道图
3D轨道图
轨道高度分析图
轨道倾角分析图
轨道综合分析图
查看轨道综合分析图
与全量物体交会距离演化趋势 订阅飞行安全评估服务
与全量物体交会风险概率演化趋势 订阅飞行安全评估服务